Location: Riverside Cemetery
(38.3047°N, 99.7773°W)
Time: 06:38:52
(UTC+00:00)

USA 234 - Pass Details

Date: 19 September 2020
Orbit: 1102 x 1106 km, 123.0° (Epoch: 16 October)

Event Time Altitude Azimuth Distance (km) Brightness Sun altitude
Rises 01:45:01 0° 49° (NE) 3,924 5.8 -13.2°
Reaches altitude 10° 01:47:36 10° 55° (NE) 2,964 5.1 -13.7°
Maximum altitude 01:53:55 50° 130° (SE) 1,378 3.4 -14.9°
Drops below altitude 10° 02:00:13 10° 204° (SSW) 2,954 5.6 -16.1°
Sets 02:02:47 0° 209° (SSW) 3,909 6.3 -16.6°
